EHI
0 0 0 0 0 0 0 0 0 0 0 0 0 0 0 0 0 0 0 0 0 0 0 0 0 0 0 0 0 0 0 0 0 0 0 0 0 0
0 0 0 0 0 0 0 0 0 0 0 0 0 0 0 0 0 0 0 0 0 0 0 0 0 0 0 0 0 0 0 0 0 0 0 0 0 0
0 0 0 0 0 0 0 0 0 0 0 0 0 0 0 0 0 0 0 0 0 0 0 0 0 0 0 0 0 0 0 0 0 0 0 0 0 0
0 0 0 0 0 0 0 0 0 0 0 0 0 0 0 0 0 0 0 0 0 0 0 0 0 0 0 0 0 0 0 0 0 0 0 0 0 0
0 0 0 0 0 0 0 0 0 0 0 0 0 0 0 0 0 0 0 0 0 0 0 0 0 0 0 0 0 0 0 0 0 0 0 0 0 0
0 0 0 0 0 0 0 0 0 0 0 0 0 0 0 0 0 0 0 0 0 0 0 0 0 0 0 0 0 0 0 0 0 0 0 0 0 0
0 0 0 0 0 0 0 0 0 0 0 0 0 0 0 0 0 0 0 0 0 0 0 0 0 0 0 0 0 0 0 0 0 0 0 0 0 0
0 0 0 0 0 0 0 0 0 0 0 0 0 0 0 0 0 0 0 0 0 0 0 0 0 0 0 0 0 0 0 0 0 0 0 0 0 0
0 0 0 0 0 0 0 0 0 0 0 0 0 0 0 0 0 0 0 0 0 0 0 0 0 0 0 0 0 0 0 0 0 0 0 0 0 0
0 0 0 0 0 0 0 0 0 0 0 0 0 0 0 0 0 0 0 0 0 0 0 0 0 0 0 0 0 0 0 0 0 0 0 0 0 0
0 0 0 0 0 0 0 0 0 0 0 0 0 0 0 0 0 0 0 0 0 0 0 0 0 0 0 0 0 0 0 0 0 0 0 0 0 0
0 0 0 0 0 0 0 0 0 0 0 0 0 0 0 0 0 0 0 0 0 0 0 0 0 0 0 0 0 0 0 0 0 0 0 0 0 0
0 0 0 0 0 0 0 0 0 0 0 0 0 0 0 0 0 0 0 0 0 0 0 0 0 0 0 0 0 0 0 0 0 0 0 0 0 0
0 0 0 0 0 0 0 0 0 0 0 0 0 0 0 0 0 0 0 0 0 0 0 0 0 0 0 0 0 0 0 0 0 0 0 0 0 0
0 0 0 0 0 0 0 0 0 0 0 0 0 0 0 0 0 0 0 0 0 0 0 0 0 0 0 0 0 0 0 0 0 0 0 0 0 0
0 0 0 0 0 0 0 0 0 0 0 0 0 0 0 0 0 0 0 0 0 0 0 0 0 0 0 0 0 0 0 0 0 0 0 0 0 0
0 0 0 0 0 0 0 0 0 0 0 0 0 0 0 0 0 0 0 0 0 0 0 0 0 0 0 0 0 0 0 0 0 0 0 0 0 0
0 0 0 0 0 0 0 0 0 0 0 0 0 0 0 0 0 0 0 0 0 0 0 0 0 0 0 0 0 0 0 0 0 0 0 0 0 0
0 0 0 0 0 0 0 0 0 0 0 0 0 0 0 0 0 0 0 0 0 0 0 0 0 0 0 0 0 0 0 0 0 0 0 0 0 0
0 0 0 0 0 0 0 0 0 0 0 0 0 0 0 0 0 0 0 0 0 0 0 0 0 0 0 0 0 0 0 0 0 0 0 0 0 0
0 0 0 0 0 0 0 0 0 0 0 0 0 0 0 0 0 0 0 0 0 0 0 0 0 0 0 0 0 0 0 0 0 0 0 0 0 0
0 0 0 0 0 0 0 0 0 0 0 0 0 0 0 0 0 0 0 0 0 0 0 0 0 0 0 0 0 0 0 0 0 0 0 0 0 0
0 0 0 0 0 0 0 0 0 0 0 0 0 0 0 0 0 0 0 0 0 0 0 0 0 0 0 0 0 0 0 0 0 0 0 0 0 0
Wind_Speed
6 6 5 4 4 4 4 5 5 5 5 4 3 2 3 3 3 4 4 5 6 6 6 5 4 4 5 5 6 6 7 7 7 8 8 8 8 9
4 6 6 4 4 4 4 4 5 5 5 3 3 2 3 3 3 4 4 4 5 5 5 4 4 4 5 5 6 6 6 7 7 8 8 8 8 9
5 6 7 6 5 5 5 5 5 4 5 4 3 3 4 4 3 3 3 4 3 5 5 5 5 5 5 6 6 6 6 5 6 7 7 8 8 9
6 6 6 5 6 5 5 6 5 5 5 5 4 4 4 4 4 3 3 3 3 3 5 5 5 5 5 5 5 5 5 5 6 6 7 8 8 9
6 6 6 6 7 5 6 6 5 4 4 5 4 3 3 3 3 3 3 2 2 2 3 5 5 5 5 5 5 5 5 5 6 6 7 8 8 9
5 6 6 7 7 6 6 6 5 5 5 5 4 3 3 3 3 3 3 2 2 2 2 2 3 4 5 5 5 5 5 5 6 7 7 8 8 9
5 5 6 6 6 6 5 5 5 5 5 5 4 3 4 3 4 3 3 2 2 2 2 2 2 2 3 4 4 4 5 6 6 6 7 7 7 7
5 5 5 5 6 7 7 6 6 6 6 5 5 5 5 5 4 3 3 3 3 2 2 2 2 3 2 2 3 4 5 5 5 6 6 6 7 7
5 4 3 4 5 5 5 5 5 6 6 6 6 6 5 5 5 5 5 4 3 2 2 3 2 3 2 2 3 4 5 4 5 5 6 6 6 6
4 4 4 4 4 4 4 4 4 4 4 4 5 4 3 3 4 3 3 2 1 1 2 2 2 2 2 2 2 3 3 3 3 4 4 5 5 6
3 4 4 4 4 5 4 4 3 2 1 2 1 1 1 2 2 2 3 2 2 2 2 2 2 2 2 2 1 2 2 3 3 4 5 6 6 7
3 3 4 4 4 5 5 4 4 3 2 1 1 1 1 2 3 3 3 3 2 2 2 2 2 1 2 1 1 2 2 3 4 4 5 5 5 4
2 3 2 4 4 4 4 4 3 2 2 2 1 1 0 0 0 1 1 2 2 2 2 2 2 2 2 2 2 2 2 3 3 3 4 5 5 5
3 3 2 3 3 3 3 3 3 2 2 2 1 1 1 0 0 0 1 1 1 1 1 1 2 2 2 2 2 2 2 2 3 3 3 4 5 6
2 2 2 2 2 2 2 3 3 2 2 2 1 1 0 0 1 1 1 1 1 1 1 2 2 2 2 2 2 2 3 3 3 3 3 3 3 3
1 2 3 2 2 2 2 1 1 1 2 1 1 1 1 1 1 1 1 1 0 1 2 2 1 1 2 2 2 3 3 2 2 3 3 3 3 4
2 1 1 2 1 1 1 1 1 1 1 1 1 1 1 1 0 0 0 0 1 1 0 1 1 1 1 2 2 3 2 2 2 3 3 4 4 4
3 2 2 2 2 2 1 1 1 1 1 1 1 1 1 1 1 0 0 1 1 0 0 0 0 1 1 0 1 3 2 2 2 3 3 4 5 4
2 2 2 2 2 2 1 1 1 0 1 1 1 1 1 1 1 1 1 1 0 0 0 0 1 1 2 2 0 1 2 2 3 3 3 4 5 5
1 1 1 1 2 2 2 1 1 1 1 1 1 1 1 1 1 1 1 1 1 1 0 0 1 1 2 2 2 2 2 3 3 4 4 4 5 6
1 1 1 1 1 1 1 1 1 1 1 1 1 0 1 1 1 1 1 1 1 1 1 1 1 1 1 1 2 2 2 2 4 4 4 4 4 4
1 1 1 1 1 1 1 1 1 1 1 1 1 1 1 1 1 1 1 1 1 1 1 0 0 1 1 2 3 3 3 3 4 6 7 6 4 3
1 1 1 1 0 0 1 1 1 1 1 1 1 1 1 1 1 1 1 1 1 1 1 1 1 1 1 2 3 3 4 4 4 3 3 4 6 7
Wind_Direction
222 223 225 225 226 228 227 226 230 241 243 234 231 229 240 248 239 242 245 233 241 245 250 250 250 250 250 250 253 259 260 262 258 253 252 250 255 262
223 222 223 221 220 219 220 229 233 241 251 241 244 240 242 250 245 252 251 238 235 231 234 238 241 243 246 246 247 254 258 259 255 252 255 256 257 262
222 225 227 224 221 221 219 224 230 232 243 254 257 251 247 244 244 253 254 249 236 222 227 233 236 238 241 243 243 246 251 252 255 257 256 259 260 263
224 227 230 223 222 222 219 223 225 230 234 240 239 239 248 246 251 254 261 259 252 222 225 234 236 237 238 242 242 242 244 247 253 262 260 257 258 261
226 226 228 222 223 222 223 225 223 225 233 235 237 243 249 245 249 258 255 253 260 229 223 231 235 236 235 241 246 246 248 252 256 261 263 260 261 262
231 229 227 224 226 223 225 227 223 221 222 223 226 231 238 238 234 239 241 241 256 258 241 245 240 241 236 235 238 244 252 258 260 261 264 261 260 261
234 236 235 231 233 231 229 226 221 222 219 218 219 224 223 218 223 227 234 231 263 255 252 256 252 251 241 227 229 239 251 256 258 259 264 263 261 261
235 239 240 231 226 226 229 233 231 227 221 219 224 224 228 227 223 214 220 230 244 217 239 259 259 262 266 255 242 254 258 257 258 259 264 263 262 266
238 237 239 236 229 222 218 221 232 239 239 238 231 232 232 223 213 218 224 235 241 208 236 261 261 267 275 264 263 257 260 260 262 265 269 266 263 267
238 234 232 233 227 221 220 220 227 236 241 242 242 246 243 225 222 230 227 231 274 257 239 251 258 268 276 265 261 259 257 257 266 275 274 271 270 270
235 235 231 232 220 213 209 212 219 242 260 246 260 249 215 202 187 175 194 199 233 238 229 235 250 279 277 268 259 241 251 263 275 285 280 273 272 272
230 232 228 229 221 214 212 209 215 222 197 170 182 200 222 194 199 214 214 211 220 230 204 216 233 249 264 253 271 270 259 264 277 281 285 283 281 274
226 235 230 211 218 222 230 228 222 213 196 185 179 154 149 179 220 259 263 237 227 231 203 213 232 238 240 258 263 274 283 291 291 283 275 280 284 281
230 236 226 202 213 221 225 202 187 190 181 167 162 164 165 140 47 44 29 356 323 269 236 236 234 231 238 256 266 274 287 296 298 298 297 287 282 282
230 218 207 191 202 204 185 179 180 179 165 164 166 169 73 124 107 79 66 71 48 12 335 284 253 238 244 253 264 272 282 290 289 292 297 298 297 296
202 161 144 124 123 112 128 157 175 169 168 165 149 118 92 112 151 165 184 164 131 10 4 344 299 253 247 258 258 264 265 266 282 299 301 296 292 286
149 135 130 128 127 118 101 87 94 115 117 120 138 134 143 152 162 169 204 209 204 222 301 0 15 13 309 277 263 261 266 276 285 301 299 297 292 287
145 148 151 149 151 149 138 119 106 116 122 133 149 159 174 182 183 160 165 166 168 200 250 277 258 256 239 252 282 265 269 283 297 297 291 293 296 300
141 145 152 156 158 158 155 149 143 132 135 151 158 163 168 175 176 182 180 170 193 236 278 287 280 263 261 273 269 244 276 293 295 295 292 291 292 300
95 132 146 152 157 158 155 150 145 144 153 160 161 169 179 181 184 192 197 199 215 238 261 294 296 285 275 288 293 293 277 282 289 294 301 301 293 291
100 107 117 131 143 148 148 152 162 169 166 166 168 173 196 189 194 202 200 204 233 243 254 279 326 318 290 266 263 271 289 278 275 277 293 298 299 294
73 78 78 85 107 122 129 139 148 160 165 172 183 194 210 209 205 213 217 225 246 255 267 291 288 263 249 252 272 289 300 309 294 274 266 263 280 287
50 52 56 65 70 115 142 152 171 188 194 196 197 200 202 209 218 220 223 229 235 237 238 242 243 251 261 264 272 283 292 299 303 308 297 282 281 282